SCP
0 0 0 0 0 0 0 0 0 0 0 0 0 0 0 0 0 0 0 0 0 0 0 0 0 0 0 0 0 0 0 0 0 0 0 0 0 0 0 0 0 0 0
0 0 0 -0 -0 0 0 0 0 0 0 0 0 0 0 0 0 0 0 0 0 0 0 0 0 0 0 0 0 0 0 0 0 0 0 0 0 0 0 0 0 0 0
-0 -0 -0 -0 -0 -0 -0 -0 -0 -0 0 0 0 0 0 0 0 0 0 0 0 0 0 0 0 0 0 0 0 0 0 0 0 0 0 0 0 0 0 0 0 0 0
-0 -0 -0 -0 -0 -0 -0 -0 -0 -0 -0 -0 -0 0 0 0 0 0 0 0 0 0 0 0 0 0 0 0 0 0 0 0 0 0 0 0 0 0 0 0 0 0 0
0 0 0 0 -0 -0 -0 -0 -0 -0 -0 -0 -0 -0 -0 -0 0 0 0 0 0 0 0 0 0 0 0 0 0 0 0 0 0 0 0 0 0 0 0 0 0 0 0
0 0 0 0 0 0 0 -0 -0 -0 -0 -0 -0 -0 -0 -0 -0 -0 -0 0 0 0 0 0 0 0 0 0 0 0 0 0 0 0 0 0 0 0 0 0 0 0 0
0 0 0 0 0 0 0 0 0 0 0 0 0 -0 -0 0 0 0 0 -0 -0 -0 0 0 0 0 0 0 0 0 0 0 0 0 0 0 0 0 0 0 0 0 0
0 0 0 0 0 0 0 0 0 0 0 0 0 0 0 0 0 0 0 0 0 0 0 0 0 0 0 0 0 0 0 0 0 0 0 0 0 0 0 0 0 0 0
0 0 0 0 0 0 0 0 0 0 0 0 0 0 0 0 0 0 0 0 0 0 0 0 0 0 0 0 0 0 0 0 0 0 0 0 0 0 0 0 0 0 0
0 0 0 0 0 0 0 0 0 0 0 0 0 0 0 0 0 0 0 0 0 0 0 0 0 0 0 0 0 0 0 0 0 0 0 0 0 0 0 0 0 0 0
0 0 0 0 0 0 0 0 0 0 0 0 0 0 0 0 0 0 0 0 0 0 0 0 0 0 0 0 0 0 0 0 0 0 0 0 0 0 0 0 0 0 0
0 0 0 0 0 0 0 0 0 0 0 0 0 0 0 0 0 0 0 0 0 0 0 0 0 0 0 0 0 0 0 0 0 0 0 0 0 0 0 0 0 0 0
0 0 0 0 0 0 0 0 0 0 0 0 0 0 0 0 0 0 0 0 0 0 0 0 0 0 0 0 0 0 0 0 0 0 0 0 0 0 0 0 0 0 0
0 0 0 0 0 0 0 0 0 0 0 0 0 0 0 0 0 0 0 0 0 0 0 0 0 0 0 0 0 0 0 0 0 0 0 0 0 0 0 0 0 0 0
0 0 0 0 0 0 0 0 0 0 0 0 0 0 0 0 0 0 0 0 0 0 0 0 0 0 0 0 0 0 0 0 0 0 0 0 0 0 0 0 0 0 0
0 0 0 0 0 0 0 0 0 0 0 0 0 0 0 0 0 0 -0 -0 -0 -0 0 0 0 0 0 0 0 0 0 0 0 0 0 0 0 0 0 0 0 0 0
0 0 0 0 0 0 0 0 0 0 0 0 0 0 0 0 0 0 0 -0 -0 -0 0 0 0 0 0 0 0 0 0 0 0 0 0 0 0 0 0 0 0 0 0
0 0 0 0 0 0 0 0 0 0 0 0 0 0 0 -0 -0 -0 -0 -0 0 0 0 0 0 0 0 0 0 0 0 0 0 0 0 0 0 0 0 0 0 0 0
0 0 0 0 0 0 0 0 0 0 0 0 0 0 0 0 0 -0 -0 0 0 0 -0 0 0 0 0 0 -0 -0 0 0 0 0 0 0 0 0 0 0 0 0 0
0 0 -0 -0 0 0 0 0 0 0 0 0 0 0 0 0 0 0 0 0 0 0 0 -0 0 0 0 0 -0 0 0 0 0 0 0 0 0 0 0 0 0 0 0
0 0 -0 0 0 0 0 0 0 0 0 0 0 0 -0 0 0 0 0 0 0 0 0 0 0 0 0 0 0 0 0 0 0 0 0 0 0 0 0 0 0 0 0
0 0 0 0 0 0 0 0 0 0 0 0 0 0 0 0 0 0 0 0 0 0 0 0 0 -0 -0 0 0 0 0 0 0 0 0 0 0 0 0 0 0 0 0
0 0 0 0 0 0 0 0 0 0 0 0 0 0 0 0 0 0 0 0 0 0 0 0 0 0 -0 0 0 0 0 0 0 0 0 0 0 0 0 0 0 0 0
0 0 0 0 0 0 0 0 0 0 0 0 0 0 0 0 0 0 0 0 0 0 0 0 0 -0 -0 -0 -0 0 0 0 0 0 0 0 0 0 0 0 0 0 0
0 0 0 0 0 0 0 0 0 0 0 0 0 0 0 0 0 0 0 0 0 0 0 0 0 -0 -0 -0 -0 -0 -0 -0 0 0 0 0 0 0 0 0 0 0 0
0 0 0 0 0 0 0 0 0 0 0 0 0 0 0 0 0 0 0 0 0 0 0 0 0 -0 -0 -0 -0 -0 -0 -0 -0 0 0 0 0 0 0 0 0 0 0
Wind_Speed_500mb
23 23 24 28 31 35 35 33 38 44 48 49 51 48 45 45 42 41 42 42 45 48 52 57 63 64 72 78 82 83 93 99 113 103 97 91 88 85 82 79 79 81 80
29 30 35 39 43 45 47 49 47 48 51 54 53 55 56 56 53 50 48 44 46 51 54 56 59 61 67 70 76 87 88 90 103 110 97 99 103 104 98 90 85 84 84
35 37 42 48 52 57 60 63 64 64 66 64 64 63 61 60 65 64 64 62 57 53 54 59 61 57 64 69 75 82 85 89 96 104 102 94 99 101 102 98 95 90 88
38 42 47 54 59 64 67 70 71 72 74 75 77 80 78 78 77 75 73 77 78 76 71 66 63 61 64 65 69 78 81 85 93 101 102 99 104 106 105 106 108 101 97
48 53 57 62 67 73 75 77 81 84 88 92 99 102 102 101 100 98 93 92 93 93 92 92 84 72 68 66 67 72 77 84 89 96 102 93 104 109 117 117 114 108 106
56 58 64 69 74 77 82 88 94 98 101 105 108 111 115 117 117 109 97 91 94 99 106 105 102 99 92 80 75 72 73 82 93 95 95 98 105 111 110 115 116 116 112
55 60 67 70 75 81 87 93 98 103 107 113 119 122 125 125 122 119 91 76 89 96 105 110 111 111 108 105 94 83 80 79 86 99 102 109 97 96 100 109 119 123 128
58 65 65 71 79 87 96 102 107 109 113 116 120 123 127 133 119 91 85 84 92 102 106 107 106 115 114 110 108 102 93 89 90 87 109 122 109 95 96 102 103 110 120
59 66 73 80 89 94 97 101 105 108 113 116 118 121 121 131 124 95 87 91 99 110 117 114 109 110 116 92 89 98 104 101 96 96 93 91 113 100 99 95 97 100 106
64 74 83 89 93 97 98 101 103 103 110 110 114 109 108 112 103 88 79 83 94 99 107 113 113 106 100 91 88 97 99 110 102 98 97 92 86 110 102 110 107 114 109
74 83 88 89 90 94 98 98 99 98 96 95 95 93 90 87 86 70 65 69 80 88 92 93 91 88 89 88 85 97 104 104 94 79 86 91 91 83 108 108 114 112 106
81 84 85 86 89 91 92 94 89 85 87 89 90 92 88 84 75 65 63 64 69 82 94 94 90 85 87 88 88 91 92 94 92 86 85 88 94 91 87 104 114 114 109
78 80 82 86 87 86 88 86 82 79 82 84 83 87 90 93 95 86 75 74 69 71 79 82 83 91 88 85 87 91 93 93 91 87 93 100 94 93 84 85 98 103 98
78 79 81 85 85 85 78 71 73 75 79 81 84 90 96 92 87 85 87 93 94 90 89 89 87 76 77 79 80 80 92 94 88 86 87 95 97 86 86 85 89 101 100
73 75 79 80 82 80 69 69 71 72 68 77 84 86 91 93 90 81 84 88 85 87 89 89 82 75 73 74 74 62 63 73 84 92 83 89 91 89 88 87 91 91 94
70 72 75 76 77 71 71 76 65 67 64 66 69 72 80 81 81 79 79 79 78 78 81 82 81 78 73 69 68 60 54 59 75 85 82 83 90 92 86 86 90 94 86
62 67 71 70 71 69 71 75 82 80 74 68 62 64 67 74 79 77 75 73 75 75 78 81 84 80 70 68 68 60 61 61 59 69 81 86 92 89 87 87 91 91 88
56 60 63 65 65 63 67 71 73 76 82 88 77 66 65 66 66 68 69 69 75 69 69 77 73 71 66 64 68 73 56 65 52 64 77 83 86 88 88 89 91 90 84
53 57 55 59 60 57 61 66 69 71 73 77 81 74 68 67 68 61 48 47 57 61 65 65 68 64 58 67 60 67 62 70 59 60 69 77 78 85 87 90 89 87 88
47 50 49 51 53 55 58 63 66 65 68 69 70 70 71 79 67 61 53 51 54 53 46 40 50 60 61 51 52 62 61 63 55 61 65 66 71 79 82 83 84 83 82
43 45 44 44 45 47 51 57 58 57 60 62 62 59 56 54 56 56 56 54 54 54 50 42 31 25 27 36 41 48 48 47 50 54 55 58 63 70 72 73 72 70 71
36 39 39 40 40 40 42 47 49 51 54 58 61 60 56 58 57 56 54 52 48 45 42 39 37 34 27 20 20 26 33 38 40 41 44 47 51 58 60 59 57 57 58
30 33 33 33 32 33 35 38 42 46 48 52 56 60 62 63 63 62 59 55 51 47 43 38 35 33 29 23 17 12 13 17 25 29 32 35 40 44 46 46 48 51 50
25 27 29 29 28 30 32 34 36 39 42 46 49 52 54 57 59 60 60 60 57 52 48 45 42 38 33 27 22 16 12 4 7 13 18 25 31 33 35 38 43 45 47
22 23 24 25 26 27 28 31 33 36 39 43 45 47 48 50 52 54 55 55 55 56 57 57 53 46 41 35 29 24 19 13 8 7 10 16 23 28 31 35 39 42 43
20 20 21 21 22 24 26 28 30 33 35 38 40 42 45 46 46 47 49 50 50 50 50 50 49 48 47 50 48 43 37 31 25 19 16 19 25 30 33 37 38 39 36
Wind_Direction_500mb
24 15 357 348 343 339 339 334 331 331 329 328 328 330 331 329 327 320 316 313 305 296 286 277 272 269 268 269 270 265 263 261 261 261 260 260 259 257 253 251 251 251 246
1 358 350 345 342 338 336 330 328 323 318 316 316 316 318 319 319 319 315 312 307 306 303 295 285 278 270 267 268 271 269 264 263 262 258 257 258 258 258 251 250 251 247
351 347 345 341 338 336 333 330 328 324 318 317 315 312 310 308 307 308 310 310 306 300 298 297 297 293 283 275 270 268 268 269 266 263 259 258 256 256 253 248 244 245 246
332 331 331 330 330 328 325 323 321 318 316 319 313 311 309 307 304 302 301 301 301 299 295 292 291 291 293 290 282 273 269 268 268 266 263 256 255 254 252 248 243 241 242
317 317 319 321 320 319 318 317 315 315 315 312 310 309 308 305 304 304 301 299 296 294 292 292 291 288 285 285 285 281 274 267 265 264 261 253 250 248 245 245 245 244 242
307 308 315 316 314 314 315 314 312 310 308 305 302 301 300 301 301 302 300 295 292 290 288 288 287 288 285 282 279 279 275 267 261 258 256 251 251 250 247 245 245 239 236
295 301 307 309 310 312 310 308 305 303 301 300 300 300 298 296 294 295 295 290 290 287 285 284 283 282 282 282 279 276 274 270 262 256 254 251 251 247 248 244 243 244 245
296 302 309 311 310 309 307 305 303 302 300 299 297 295 295 293 295 295 294 292 288 284 281 280 280 280 278 278 279 277 274 270 268 261 252 254 251 250 249 253 254 255 251
306 312 313 311 309 308 307 306 305 303 300 298 296 295 293 291 292 294 293 288 283 279 280 280 278 276 275 269 268 269 272 271 268 265 262 260 249 247 247 248 241 235 237
314 314 314 312 312 312 311 309 307 304 301 300 298 298 297 296 298 296 294 288 284 282 280 279 279 276 274 269 262 260 260 265 268 267 262 259 254 244 237 242 243 237 236
316 315 315 316 316 315 313 312 312 310 308 306 305 306 306 306 307 301 297 290 286 286 284 283 280 277 274 269 261 257 254 261 261 257 257 259 258 253 239 234 238 236 232
316 316 317 318 318 317 317 317 316 314 312 311 311 311 312 313 315 304 300 293 289 285 284 283 283 280 275 271 264 256 254 255 253 252 250 247 252 255 250 239 233 236 235
316 318 321 321 322 324 323 318 315 316 313 311 308 306 310 317 314 312 302 297 293 288 288 288 287 275 278 279 268 258 251 251 249 248 245 247 247 253 253 250 244 236 231
318 322 325 325 328 327 321 320 319 318 316 311 308 305 308 307 307 308 305 302 301 295 295 294 295 288 274 277 283 261 249 247 248 249 247 249 251 246 244 243 239 233 227
320 324 328 331 330 325 326 329 323 320 311 306 302 302 302 301 302 303 301 298 295 292 292 290 287 283 281 283 284 271 245 244 249 250 247 246 244 243 243 240 233 228 222
321 327 330 334 329 330 332 332 332 325 311 305 303 302 302 301 302 302 301 299 297 293 287 281 277 275 273 277 283 278 264 262 254 246 240 238 240 241 230 226 224 223 213
324 329 332 335 331 336 337 333 331 335 333 327 316 313 310 309 307 303 301 300 298 297 287 281 274 271 267 267 265 262 272 265 260 249 240 235 236 232 223 215 217 217 213
327 331 334 335 334 339 339 336 334 331 328 333 337 326 320 318 315 312 308 305 300 302 303 290 280 265 263 266 262 256 264 263 259 250 240 233 233 224 217 212 217 215 208
328 333 334 337 337 341 341 341 340 336 332 330 334 337 340 339 329 324 329 330 327 316 306 292 292 288 272 259 256 251 259 257 262 251 243 238 230 225 216 213 215 211 210
328 331 339 335 337 346 348 348 345 343 342 341 343 344 349 337 341 350 352 350 351 351 346 322 309 303 294 281 256 248 260 256 258 247 240 234 225 219 211 208 208 207 207
324 333 336 336 341 349 353 354 354 353 352 352 354 354 345 343 357 358 357 358 358 360 3 2 348 323 291 277 265 257 258 260 249 242 234 225 215 205 206 207 206 203 204
324 331 339 338 343 353 359 1 1 4 6 5 7 12 9 14 12 10 8 8 8 7 7 6 6 2 352 327 288 268 255 246 238 231 222 216 211 208 205 202 202 202 201
321 328 341 343 348 358 4 6 8 11 14 16 16 17 20 23 24 23 21 19 19 20 21 24 28 28 25 22 17 355 317 261 233 228 220 212 209 207 203 198 197 194 194
318 329 337 345 356 5 5 7 9 11 13 17 19 22 23 25 27 28 29 31 32 33 33 33 34 34 33 33 36 40 33 356 230 215 217 208 199 195 191 188 186 187 183
313 322 332 344 358 4 9 11 11 14 17 19 20 23 25 26 27 29 30 32 34 37 41 43 43 45 47 48 50 53 56 67 92 137 171 186 182 181 180 178 171 167 165
304 313 322 335 345 354 0 5 7 10 13 17 18 20 21 23 26 28 29 31 34 36 39 43 46 49 54 58 57 61 66 69 75 86 110 137 147 148 152 151 152 152 152
Wind_Speed_850mb
23 23 24 28 31 35 35 33 38 44 48 49 51 48 45 45 42 41 42 42 45 48 52 57 63 64 72 78 82 83 93 99 113 103 97 91 88 85 82 79 79 81 80
29 30 35 39 43 45 47 49 47 48 51 54 53 55 56 56 53 50 48 44 46 51 54 56 59 61 67 70 76 87 88 90 103 110 97 99 103 104 98 90 85 84 84
35 37 42 48 52 57 60 63 64 64 66 64 64 63 61 60 65 64 64 62 57 53 54 59 61 57 64 69 75 82 85 89 96 104 102 94 99 101 102 98 95 90 88
38 42 47 54 59 64 67 70 71 72 74 75 77 80 78 78 77 75 73 77 78 76 71 66 63 61 64 65 69 78 81 85 93 101 102 99 104 106 105 106 108 101 97
48 53 57 62 67 73 75 77 81 84 88 92 99 102 102 101 100 98 93 92 93 93 92 92 84 72 68 66 67 72 77 84 89 96 102 93 104 109 117 117 114 108 106
56 58 64 69 74 77 82 88 94 98 101 105 108 111 115 117 117 109 97 91 94 99 106 105 102 99 92 80 75 72 73 82 93 95 95 98 105 111 110 115 116 116 112
55 60 67 70 75 81 87 93 98 103 107 113 119 122 125 125 122 119 91 76 89 96 105 110 111 111 108 105 94 83 80 79 86 99 102 109 97 96 100 109 119 123 128
58 65 65 71 79 87 96 102 107 109 113 116 120 123 127 133 119 91 85 84 92 102 106 107 106 115 114 110 108 102 93 89 90 87 109 122 109 95 96 102 103 110 120
59 66 73 80 89 94 97 101 105 108 113 116 118 121 121 131 124 95 87 91 99 110 117 114 109 110 116 92 89 98 104 101 96 96 93 91 113 100 99 95 97 100 106
64 74 83 89 93 97 98 101 103 103 110 110 114 109 108 112 103 88 79 83 94 99 107 113 113 106 100 91 88 97 99 110 102 98 97 92 86 110 102 110 107 114 109
74 83 88 89 90 94 98 98 99 98 96 95 95 93 90 87 86 70 65 69 80 88 92 93 91 88 89 88 85 97 104 104 94 79 86 91 91 83 108 108 114 112 106
81 84 85 86 89 91 92 94 89 85 87 89 90 92 88 84 75 65 63 64 69 82 94 94 90 85 87 88 88 91 92 94 92 86 85 88 94 91 87 104 114 114 109
78 80 82 86 87 86 88 86 82 79 82 84 83 87 90 93 95 86 75 74 69 71 79 82 83 91 88 85 87 91 93 93 91 87 93 100 94 93 84 85 98 103 98
78 79 81 85 85 85 78 71 73 75 79 81 84 90 96 92 87 85 87 93 94 90 89 89 87 76 77 79 80 80 92 94 88 86 87 95 97 86 86 85 89 101 100
73 75 79 80 82 80 69 69 71 72 68 77 84 86 91 93 90 81 84 88 85 87 89 89 82 75 73 74 74 62 63 73 84 92 83 89 91 89 88 87 91 91 94
70 72 75 76 77 71 71 76 65 67 64 66 69 72 80 81 81 79 79 79 78 78 81 82 81 78 73 69 68 60 54 59 75 85 82 83 90 92 86 86 90 94 86
62 67 71 70 71 69 71 75 82 80 74 68 62 64 67 74 79 77 75 73 75 75 78 81 84 80 70 68 68 60 61 61 59 69 81 86 92 89 87 87 91 91 88
56 60 63 65 65 63 67 71 73 76 82 88 77 66 65 66 66 68 69 69 75 69 69 77 73 71 66 64 68 73 56 65 52 64 77 83 86 88 88 89 91 90 84
53 57 55 59 60 57 61 66 69 71 73 77 81 74 68 67 68 61 48 47 57 61 65 65 68 64 58 67 60 67 62 70 59 60 69 77 78 85 87 90 89 87 88
47 50 49 51 53 55 58 63 66 65 68 69 70 70 71 79 67 61 53 51 54 53 46 40 50 60 61 51 52 62 61 63 55 61 65 66 71 79 82 83 84 83 82
43 45 44 44 45 47 51 57 58 57 60 62 62 59 56 54 56 56 56 54 54 54 50 42 31 25 27 36 41 48 48 47 50 54 55 58 63 70 72 73 72 70 71
36 39 39 40 40 40 42 47 49 51 54 58 61 60 56 58 57 56 54 52 48 45 42 39 37 34 27 20 20 26 33 38 40 41 44 47 51 58 60 59 57 57 58
30 33 33 33 32 33 35 38 42 46 48 52 56 60 62 63 63 62 59 55 51 47 43 38 35 33 29 23 17 12 13 17 25 29 32 35 40 44 46 46 48 51 50
25 27 29 29 28 30 32 34 36 39 42 46 49 52 54 57 59 60 60 60 57 52 48 45 42 38 33 27 22 16 12 4 7 13 18 25 31 33 35 38 43 45 47
22 23 24 25 26 27 28 31 33 36 39 43 45 47 48 50 52 54 55 55 55 56 57 57 53 46 41 35 29 24 19 13 8 7 10 16 23 28 31 35 39 42 43
20 20 21 21 22 24 26 28 30 33 35 38 40 42 45 46 46 47 49 50 50 50 50 50 49 48 47 50 48 43 37 31 25 19 16 19 25 30 33 37 38 39 36
Wind_Direction_850mb
24 15 357 348 343 339 339 334 331 331 329 328 328 330 331 329 327 320 316 313 305 296 286 277 272 269 268 269 270 265 263 261 261 261 260 260 259 257 253 251 251 251 246
1 358 350 345 342 338 336 330 328 323 318 316 316 316 318 319 319 319 315 312 307 306 303 295 285 278 270 267 268 271 269 264 263 262 258 257 258 258 258 251 250 251 247
351 347 345 341 338 336 333 330 328 324 318 317 315 312 310 308 307 308 310 310 306 300 298 297 297 293 283 275 270 268 268 269 266 263 259 258 256 256 253 248 244 245 246
332 331 331 330 330 328 325 323 321 318 316 319 313 311 309 307 304 302 301 301 301 299 295 292 291 291 293 290 282 273 269 268 268 266 263 256 255 254 252 248 243 241 242
317 317 319 321 320 319 318 317 315 315 315 312 310 309 308 305 304 304 301 299 296 294 292 292 291 288 285 285 285 281 274 267 265 264 261 253 250 248 245 245 245 244 242
307 308 315 316 314 314 315 314 312 310 308 305 302 301 300 301 301 302 300 295 292 290 288 288 287 288 285 282 279 279 275 267 261 258 256 251 251 250 247 245 245 239 236
295 301 307 309 310 312 310 308 305 303 301 300 300 300 298 296 294 295 295 290 290 287 285 284 283 282 282 282 279 276 274 270 262 256 254 251 251 247 248 244 243 244 245
296 302 309 311 310 309 307 305 303 302 300 299 297 295 295 293 295 295 294 292 288 284 281 280 280 280 278 278 279 277 274 270 268 261 252 254 251 250 249 253 254 255 251
306 312 313 311 309 308 307 306 305 303 300 298 296 295 293 291 292 294 293 288 283 279 280 280 278 276 275 269 268 269 272 271 268 265 262 260 249 247 247 248 241 235 237
314 314 314 312 312 312 311 309 307 304 301 300 298 298 297 296 298 296 294 288 284 282 280 279 279 276 274 269 262 260 260 265 268 267 262 259 254 244 237 242 243 237 236
316 315 315 316 316 315 313 312 312 310 308 306 305 306 306 306 307 301 297 290 286 286 284 283 280 277 274 269 261 257 254 261 261 257 257 259 258 253 239 234 238 236 232
316 316 317 318 318 317 317 317 316 314 312 311 311 311 312 313 315 304 300 293 289 285 284 283 283 280 275 271 264 256 254 255 253 252 250 247 252 255 250 239 233 236 235
316 318 321 321 322 324 323 318 315 316 313 311 308 306 310 317 314 312 302 297 293 288 288 288 287 275 278 279 268 258 251 251 249 248 245 247 247 253 253 250 244 236 231
318 322 325 325 328 327 321 320 319 318 316 311 308 305 308 307 307 308 305 302 301 295 295 294 295 288 274 277 283 261 249 247 248 249 247 249 251 246 244 243 239 233 227
320 324 328 331 330 325 326 329 323 320 311 306 302 302 302 301 302 303 301 298 295 292 292 290 287 283 281 283 284 271 245 244 249 250 247 246 244 243 243 240 233 228 222
321 327 330 334 329 330 332 332 332 325 311 305 303 302 302 301 302 302 301 299 297 293 287 281 277 275 273 277 283 278 264 262 254 246 240 238 240 241 230 226 224 223 213
324 329 332 335 331 336 337 333 331 335 333 327 316 313 310 309 307 303 301 300 298 297 287 281 274 271 267 267 265 262 272 265 260 249 240 235 236 232 223 215 217 217 213
327 331 334 335 334 339 339 336 334 331 328 333 337 326 320 318 315 312 308 305 300 302 303 290 280 265 263 266 262 256 264 263 259 250 240 233 233 224 217 212 217 215 208
328 333 334 337 337 341 341 341 340 336 332 330 334 337 340 339 329 324 329 330 327 316 306 292 292 288 272 259 256 251 259 257 262 251 243 238 230 225 216 213 215 211 210
328 331 339 335 337 346 348 348 345 343 342 341 343 344 349 337 341 350 352 350 351 351 346 322 309 303 294 281 256 248 260 256 258 247 240 234 225 219 211 208 208 207 207
324 333 336 336 341 349 353 354 354 353 352 352 354 354 345 343 357 358 357 358 358 360 3 2 348 323 291 277 265 257 258 260 249 242 234 225 215 205 206 207 206 203 204
324 331 339 338 343 353 359 1 1 4 6 5 7 12 9 14 12 10 8 8 8 7 7 6 6 2 352 327 288 268 255 246 238 231 222 216 211 208 205 202 202 202 201
321 328 341 343 348 358 4 6 8 11 14 16 16 17 20 23 24 23 21 19 19 20 21 24 28 28 25 22 17 355 317 261 233 228 220 212 209 207 203 198 197 194 194
318 329 337 345 356 5 5 7 9 11 13 17 19 22 23 25 27 28 29 31 32 33 33 33 34 34 33 33 36 40 33 356 230 215 217 208 199 195 191 188 186 187 183
313 322 332 344 358 4 9 11 11 14 17 19 20 23 25 26 27 29 30 32 34 37 41 43 43 45 47 48 50 53 56 67 92 137 171 186 182 181 180 178 171 167 165
304 313 322 335 345 354 0 5 7 10 13 17 18 20 21 23 26 28 29 31 34 36 39 43 46 49 54 58 57 61 66 69 75 86 110 137 147 148 152 151 152 152 152